Weather in Chukar

Russia / Sakha (Yakutia) Republic     63°44′51″N   117°58′08″E
temp.,
°C
wind,
m/s
gust,
m/s
humid.,
%
clouds,
%
prec.,
mm/h
press.,
hPa
HPBL,
m
23 april, fri
fri2300:00−4sw41294100 0.1 1022525
03:00−3wsw51190100 0.2 1020667
06:00−4wsw51194100 0.8 1019890
09:00−3wnw5119199 1.3 1018903
12:00−1nw6118046 0.5 10191497
15:00−1nw61177100 0.8 10221638
18:00−1nw51176100 0.3 10231642
21:00−3wnw398597 0.3 1025268
24 april, sat
sat2400:00−7w2596100 0.0 102782
03:00−5w1398100 0.1 102762
06:00−5w2598100 0.3 1028136
09:000wnw378883 0.4 1028488
12:00+2w379052 0.0 1027705
15:00+4w498895 0.1 1026791
18:00+4w399113 0.0 1025592
21:00+1w399379 0.0 1025276
25 april, sun
sun2500:00+1w4886100 0.0 1024453
03:00−1w2593100 0.0 1022103
06:00−3wsw1197100 0.1 102011
09:000w1288100 0.1 1018117
12:00+2wsw1378100 0.0 1015731
15:00+2sw1482100 0.0 1013584
18:00+3s1386100 0.0 1010118
21:000s2496100 0.0 100979
26 april, mon
mon2600:00−1wsw2697100 0.0 1007127
03:00−3sw1298100 0.0 100546
06:00−2sw1598100 0.0 1003131
09:00−1w2597100 0.2 1002216
12:00−1nw4682100 0.3 1003597
15:00−1nw467298 0.5 1004974
18:00−1nw4670100 0.0 10051292
21:00−5nw378060 0.1 1007229
27 april, tue
tue2700:00−8w398216 0.0 1008363
03:00−9wsw398854 0.0 1008387
06:00−8wsw499194 0.1 1008574
09:00−6wnw5776100 0.2 10091021
12:00−5wnw4674100 0.2 10101217
15:00−4wnw4669100 0.4 10121364
18:00−4nw4672100 0.3 10131093
21:00−6nw378798 0.4 1014376